Track ONEWEB-0178 now! 10-day predictions ONEWEB-0178 is classified as:
1 48075U 21025AK 21104.83334491 -.00053245 00000-0 -12455-2 0 9997 2 48075 87.3937 342.7686 0011597 167.8858 334.5571 15.42329121 4489